sat.trackr.live / text

‹ back to catalog

CAS500-2 RIDESHARE OBJE*

NORAD 68989 · 2026-100K

PAYLOAD ACTIVE UNKNOWN

§ Identity

Operator
Country
TBD
Launch date
2026-05-03
Launch site
AFWTR
Launch vehicle
Mass (kg)
RCS (m²)

External: N2YO · Heavens-Above · Gunter

§ Orbital elements

Epoch: 2026-09-20T01:29:14.286624Z

Period
96.57 min
Inclination
97.7258°
Eccentricity
0.0006054
Mean motion
14.91152070 rev/d
Perigee alt
590.1 km
Apogee alt
598.6 km
Semi-major
6,972.5 km
B*
1.3344e-4
RAAN
158.5587°
Arg perigee
166.7090°
Mean anomaly
193.4289°
Rev number
2,083

§ Raw data

CAS500-2 RIDESHARE OBJE*1 68989U 26100K   26263.06197091  .00001269  00000+0  13344-3 0  99962 68989  97.7258 158.5587 0006054 166.7090 193.4289 14.91152070 20832

JSON: /api/v1/satellites/68989 · /tle

For live sub-satellite position, see the globe view (requires WebGL).

§ Visibility from observer

Set your observer location to see the next 7 days of passes ≥ 10°. The values pass through the URL so the page stays shareable.

No JS? Fill the form by hand. The geolocation button needs JavaScript.

§ Radio — SatNOGS DB

ModeDescriptionDownlinkUplink
FM S-band telemetry 2.262 GHz

1 transmitter · refreshed weekly from db.satnogs.org